Decimomannu, Italy

4:07 AM CEST on July 27, 2017 (GMT +0200)
Decimomannu Mil

Weather History for LIED - October, 2012

Change the Weather History Date:

Sunday, October 7, 2012

  Actual Average Record
Temperature  
Mean Temperature 72 °F -  
Max Temperature 82 °F 72 °F 87 °F (2001)
Min Temperature 63 °F 53 °F 51 °F (1999)
Cooling Degree Days 8    
Growing Degree Days 22 (Base 50)    
Moisture  
Dew Point 65 °F    
Average Humidity 77    
Maximum Humidity 89    
Minimum Humidity 55    
Precipitation  
Precipitation 0.00 in 0.07 in - ()
Sea Level Pressure  
Sea Level Pressure 30.06 in    
Wind  
Wind Speed 5 mph ()    
Max Wind Speed 14 mph    
Max Gust Speed -    
Visibility 5.8 miles    
Events      
Averages and records for this station are not official NWS values.
T = Trace of Precipitation, MM = Missing Value Source: Averaged Metar Reports

Daily Weather History Graph

Daily Weather History Graph

Search for Another Location

Airport or City:

Trip Planner

Search our weather history database for the weather conditions in past years. The results will help you decide how hot, cold, wet, or windy it might be!

Date:

Astronomy

Oct. 07, 2012 Rise Set
Actual Time 7:26 AM CEST 6:56 PM CEST
Civil Twilight 6:59 AM CEST 7:23 PM CEST
Nautical Twilight 6:28 AM CEST 7:54 PM CEST
Astronomical Twilight 5:57 AM CEST 8:25 PM CEST
Moon 11:54 PM CEST (10/7) 1:50 PM CEST (10/7)
Length of Visible Light 12h 24m
Length of Day
11h 30m
Waning Gibbous, 58% of the Moon is Illuminated
Oct 7
Waning Gibbous
Oct 8
Last Quarter
Oct 15
New
Oct 22
First Quarter
Oct 29
Full

Hourly Weather History & Observations

Time (CEST) Temp. Heat Index Dew Point Humidity Pressure Visibility Wind Dir Wind Speed Gust Speed Precip Events Conditions
12:55 AM 66.2 °F - 62.6 °F 88% 30.09 in 6.2 mi NE 2.3 mph - N/A   Partly Cloudy
1:55 AM 64.4 °F - 59.0 °F 83% 30.09 in 6.2 mi NE 2.3 mph - N/A   Partly Cloudy
2:55 AM 64.4 °F - 59.0 °F 83% 30.09 in 6.2 mi NNW 4.6 mph - N/A   Mostly Cloudy
3:55 AM 64.4 °F - 59.0 °F 83% 30.09 in 4.3 mi North 1.2 mph - N/A   Mostly Cloudy
4:55 AM 68.0 °F - 62.6 °F 83% 30.06 in 5.0 mi WNW 3.5 mph - N/A   Mostly Cloudy
5:00 AM 67 °F - 63 °F 84% 30.09 in 5 mi WNW 3.5 mph - -   Mist
5:55 AM 68.0 °F - 64.4 °F 88% 30.09 in 5.0 mi WNW 2.3 mph - N/A   Mostly Cloudy
6:55 AM 66.2 °F - 62.6 °F 88% 30.06 in 3.7 mi ENE 5.8 mph - N/A   Scattered Clouds
7:55 AM 64.4 °F - 60.8 °F 88% 30.06 in 4.3 mi NNE 1.2 mph - N/A   Partly Cloudy
8:00 AM 65 °F - 61 °F 83% 30.08 in 4 mi NNE 1.2 mph - -   Mist
8:55 AM 68.0 °F - 62.6 °F 83% 30.06 in 5.0 mi North 3.5 mph - N/A   Partly Cloudy
9:55 AM 71.6 °F - 66.2 °F 83% 30.06 in 5.6 mi NNW 1.2 mph - N/A   Partly Cloudy
10:55 AM 75.2 °F - 68.0 °F 78% 30.06 in 6.2 mi NNW 2.3 mph - N/A   Scattered Clouds
11:00 AM 76 °F - 68 °F 70% 30.09 in 6 mi NNW 2.3 mph - -   Overcast
11:55 AM 78.8 °F - 69.8 °F 74% 30.06 in 6.2 mi West 4.6 mph - N/A   Scattered Clouds
12:55 PM 78.8 °F - 68.0 °F 69% 30.06 in 6.2 mi NW 8.1 mph - N/A   Scattered Clouds
1:55 PM 82.4 °F 86.3 °F 69.8 °F 66% 30.04 in 6.2 mi NNW 10.4 mph - N/A   Scattered Clouds
2:00 PM 82 °F - 69 °F 57% 30.05 in 7 mi NNW 10.4 mph - -   Scattered Clouds
2:55 PM 80.6 °F 83.2 °F 68.0 °F 65% 30.04 in 6.2 mi WNW 9.2 mph - N/A   Mostly Cloudy
3:55 PM 80.6 °F 82.7 °F 66.2 °F 61% 30.04 in 6.2 mi NNW 13.8 mph - N/A   Scattered Clouds
4:55 PM 77.0 °F - 68.0 °F 74% 30.01 in 6.2 mi NW 13.8 mph - N/A   Scattered Clouds
5:00 PM 78 °F - 67 °F 61% 30.03 in 7 mi NW 13.8 mph - -   Overcast
5:55 PM 77.0 °F - 68.0 °F 74% 30.01 in 6.2 mi NW 11.5 mph - N/A   Scattered Clouds
6:55 PM 75.2 °F - 68.0 °F 78% 30.04 in 6.2 mi NNW 10.4 mph - N/A   Scattered Clouds
7:55 PM 75.2 °F - 62.6 °F 65% 30.01 in 6.2 mi North 9.2 mph - N/A   Scattered Clouds
8:00 PM 76 °F - 63 °F 55% 30.03 in 6 mi North 9.2 mph - -   Overcast
8:55 PM 75.2 °F - 71.6 °F 89% 30.04 in 6.2 mi North 9.2 mph - N/A   Scattered Clouds
9:55 PM 71.6 °F - 68.0 °F 88% 30.04 in 6.2 mi North 11.5 mph - N/A   Scattered Clouds
10:55 PM 71.6 °F - 68.0 °F 88% 30.04 in 6.2 mi NNW 6.9 mph - N/A   Partly Cloudy
11:00 PM 72 °F - 68 °F 83% 30.06 in 6 mi NNW 6.9 mph - -   Scattered Clouds
11:55 PM 69.8 °F - 66.2 °F 88% 30.04 in 6.2 mi NNW 11.5 mph - N/A   Partly Cloudy